EW3204 Weather Reports


Display with metric or nautical units.
time (UTC)temp
F
wind
direction
speed
MPH
gust
MPH
rain 1hr
in
rain 24hr
in
rain mn
in
humidity
%
barometer
mb
20240301011513 68 285 8.0 0.0 0.00 0.00 0.00 33 1014.6
20240301010011 69 317 11.0 0.0 0.00 0.00 0.00 34 1014.6
20240301004514 70 296 12.0 0.0 0.00 0.00 0.00 33 1014.4
20240301003016 70 274 12.0 0.0 0.00 0.00 0.00 33 1014.3
20240301001523 71 285 15.0 0.0 0.00 0.00 0.00 31 1014.3
20240301000010 72 306 13.0 0.0 0.00 0.00 0.00 29 1014.3
20240229234510 72 308 13.0 0.0 0.00 0.00 0.00 28 1014.2
20240229233010 73 300 11.0 0.0 0.00 0.00 0.00 26 1014.2
20240229231508 74 342 11.0 0.0 0.00 0.00 0.00 27 1014.2
20240229230008 74 296 10.0 0.0 0.00 0.00 0.00 23 1014.3
20240229224507 75 325 8.0 0.0 0.00 0.00 0.00 23 1014.2
20240229223006 75 13 11.0 0.0 0.00 0.00 0.00 23 1014.1
20240229221505 76 356 12.0 0.0 0.00 0.00 0.00 23 1014.5
20240229220004 76 248 6.0 0.0 0.00 0.00 0.00 21 1014.5
20240229214503 76 348 8.0 0.0 0.00 0.00 0.00 21 1014.6
20240229213001 76 312 8.0 0.0 0.00 0.00 0.00 21 1014.9
20240229211601 75 310 2.0 0.0 0.00 0.00 0.00 24 1015.0
20240229210057 74 100 5.0 0.0 0.00 0.00 0.00 26 1015.2
20240229204555 74 152 3.0 0.0 0.00 0.00 0.00 26 1015.4
20240229203054 73 146 3.0 0.0 0.00 0.00 0.00 26 1015.7
20240229201552 73 114 3.0 0.0 0.00 0.00 0.00 26 1016.0
20240229200052 73 92 3.0 0.0 0.00 0.00 0.00 27 1016.3
20240229194552 72 11 3.0 0.0 0.00 0.00 0.00 29 1016.4
20240229193048 72 117 2.0 0.0 0.00 0.00 0.00 30 1016.6
20240229191544 71 100 4.0 0.0 0.00 0.00 0.00 30 1016.8
20240229190043 71 102 4.0 0.0 0.00 0.00 0.00 31 1017.0
20240229184549 70 143 5.0 0.0 0.00 0.00 0.00 33 1017.2
20240229183057 69 102 5.0 0.0 0.00 0.00 0.00 34 1017.4
20240229181538 69 122 5.0 0.0 0.00 0.00 0.00 35 1017.3
20240229180035 68 127 4.0 0.0 0.00 0.00 0.00 36 1017.2
20240229174534 68 146 5.0 0.0 0.00 0.00 0.00 36 1017.2
20240229173033 68 151 4.0 0.0 0.00 0.00 0.00 36 1017.1
20240229171531 68 118 4.0 0.0 0.00 0.00 0.00 36 1017.0
20240229170029 67 103 4.0 0.0 0.00 0.00 0.00 36 1017.1
20240229164527 67 162 4.0 0.0 0.00 0.00 0.00 37 1016.9
20240229163025 66 106 3.0 0.0 0.00 0.00 0.00 37 1016.8
20240229161525 65 104 2.0 0.0 0.00 0.00 0.00 39 1016.8
20240229160021 65 111 0.0 0.0 0.00 0.00 0.00 41 1016.7
20240229154520 63 73 0.0 0.0 0.00 0.00 0.00 44 1016.5
20240229153029 62 73 0.0 0.0 0.00 0.00 0.00 43 1016.5
20240229151517 60 81 1.0 0.0 0.00 0.00 0.00 42 1016.3
20240229150019 58 181 1.0 0.0 0.00 0.00 0.00 44 1016.2
20240229144514 59 209 5.0 0.0 0.00 0.00 0.00 43 1016.0
20240229143013 57 222 3.0 0.0 0.00 0.00 0.00 44 1016.0
20240229141510 57 221 3.0 0.0 0.00 0.00 0.00 43 1016.0
20240229140010 58 198 5.0 0.0 0.00 0.00 0.00 41 1015.8
20240229134513 57 184 1.0 0.0 0.00 0.00 0.00 43 1015.7
20240229133006 57 129 1.0 0.0 0.00 0.00 0.00 42 1015.5
20240229131503 59 190 2.0 0.0 0.00 0.00 0.00 40 1015.1
20240229130001 58 157 4.0 0.0 0.00 0.00 0.00 40 1015.0
20240229124603 58 218 1.0 0.0 0.00 0.00 0.00 40 1015.0
20240229123100 57 209 2.0 0.0 0.00 0.00 0.00 39 1014.9
20240229121615 58 268 1.0 0.0 0.00 0.00 0.00 38 1014.7
20240229120102 58 202 1.0 0.0 0.00 0.00 0.00 38 1014.7
20240229114557 58 189 3.0 0.0 0.00 0.00 0.00 39 1014.7
20240229113057 58 279 3.0 0.0 0.00 0.00 0.00 38 1014.6
20240229111549 59 215 1.0 0.0 0.00 0.00 0.00 37 1014.5
20240229110047 60 258 0.0 0.0 0.00 0.00 0.00 34 1014.5
20240229104544 61 310 0.0 0.0 0.00 0.00 0.00 35 1014.5
20240229103054 63 310 2.0 0.0 0.00 0.00 0.00 32 1014.4
20240229101555 62 231 2.0 0.0 0.00 0.00 0.00 32 1014.4
20240229100040 64 209 4.0 0.0 0.00 0.00 0.00 31 1014.4
20240229094558 63 225 5.0 0.0 0.00 0.00 0.00 32 1014.4
20240229093038 65 263 2.0 0.0 0.00 0.00 0.00 32 1014.6
20240229091542 65 283 4.0 0.0 0.00 0.00 0.00 30 1014.6
20240229090033 65 274 3.0 0.0 0.00 0.00 0.00 31 1014.6
20240229084533 65 243 4.0 0.0 0.00 0.00 0.00 30 1014.7
20240229083049 64 206 0.0 0.0 0.00 0.00 0.00 31 1014.7
20240229081527 65 265 1.0 0.0 0.00 0.00 0.00 32 1014.6
20240229080037 65 269 4.0 0.0 0.00 0.00 0.00 31 1014.7
20240229074522 66 231 7.0 0.0 0.00 0.00 0.00 31 1014.8
20240229073023 66 250 6.0 0.0 0.00 0.00 0.00 32 1014.7
20240229071522 66 290 7.0 0.0 0.00 0.00 0.00 32 1014.6
20240229070021 66 268 7.0 0.0 0.00 0.00 0.00 32 1014.5
20240229064521 65 259 3.0 0.0 0.00 0.00 0.00 35 1014.6
20240229063026 64 41 0.0 0.0 0.00 0.00 0.00 37 1014.6
20240229061529 64 41 1.0 0.0 0.00 0.00 0.00 40 1014.4
20240229060020 65 123 2.0 0.0 0.00 0.00 0.00 40 1014.4
20240229054521 67 226 6.0 0.0 0.00 0.00 0.00 31 1014.3
20240229053019 67 256 9.0 0.0 0.00 0.00 0.00 30 1014.2
20240229051518 67 250 8.0 0.0 0.00 0.00 0.00 31 1014.1
20240229050017 67 265 9.0 0.0 0.00 0.00 0.00 32 1013.9
20240229044517 67 265 8.0 0.0 0.00 0.00 0.00 32 1013.9
20240229043017 67 252 6.0 0.0 0.00 0.00 0.00 33 1014.0
20240229041522 67 265 7.0 0.0 0.00 0.00 0.00 33 1014.0
20240229040016 68 244 9.0 0.0 0.00 0.00 0.00 34 1013.9
20240229034515 68 252 8.0 0.0 0.00 0.00 0.00 34 1013.8
20240229033015 68 263 5.0 0.0 0.00 0.00 0.00 37 1013.5
20240229031521 67 274 4.0 0.0 0.00 0.00 0.00 41 1013.5
20240229030014 66 321 0.0 0.0 0.00 0.00 0.00 41 1013.4
20240229024516 66 321 1.0 0.0 0.00 0.00 0.00 40 1013.3
20240229023015 67 332 2.0 0.0 0.00 0.00 0.00 36 1013.1
20240229021518 69 229 3.0 0.0 0.00 0.00 0.00 40 1012.9
20240229020017 70 267 6.0 0.0 0.00 0.00 0.00 39 1012.7
20240229014512 69 248 5.0 0.0 0.00 0.00 0.00 38 1012.5
20240229013013 69 227 1.0 0.0 0.00 0.00 0.00 26 1012.3